Wind_Speed
8 7 6 6 9 10 11 10 12 13 13 11 10 8 9 8 7 7 7 6 5 4 3 4 2 1 3 8 8 11 10 2 7 4 2 5 6 6 12 4 5 12 16 17
11 9 9 7 9 11 10 10 13 14 12 9 10 11 9 8 7 6 6 6 5 5 3 2 3 2 4 7 7 11 11 5 5 2 6 10 15 21 13 21 18 14 9 10
13 12 10 11 9 9 8 12 12 12 9 10 8 10 10 8 7 6 5 6 4 3 3 3 4 6 7 9 10 14 15 9 10 10 12 19 28 27 26 25 18 19 30 37
17 15 13 11 12 11 10 9 12 13 12 12 11 10 10 8 7 5 5 4 4 2 2 5 8 10 10 12 16 14 11 17 21 22 21 22 29 30 27 29 28 24 30 29
19 17 14 12 11 11 11 11 12 11 11 10 11 8 8 5 5 5 5 5 7 8 10 10 12 14 14 14 13 12 17 19 21 30 22 15 29 30 16 15 21 24 29 35
21 20 17 15 13 11 9 10 12 12 12 12 11 12 10 9 8 7 7 8 10 11 11 15 16 15 15 17 18 19 22 19 9 10 19 18 23 5 21 24 28 33 35 28
23 21 19 18 15 13 12 10 11 11 11 12 12 12 12 11 11 10 11 11 10 12 17 19 18 21 17 14 11 15 18 18 15 14 19 3 17 26 30 28 23 25 25 29
24 22 21 20 17 15 14 13 12 11 11 12 13 13 13 12 12 12 12 13 15 18 17 19 19 20 3 10 13 8 12 14 14 11 13 22 34 22 22 24 30 34 27 24
26 24 23 23 21 19 17 16 14 13 12 13 13 15 16 16 15 16 17 18 17 17 17 17 11 7 16 6 8 15 14 16 19 22 12 6 27 27 24 25 33 21 21 37
28 26 25 24 23 21 20 18 16 15 14 14 12 15 16 16 16 16 16 17 17 17 18 20 18 17 20 10 14 14 17 17 22 29 29 21 28 23 21 17 19 35 47 44
29 28 26 25 25 24 22 20 19 17 17 15 13 14 15 16 16 17 16 14 17 18 18 17 17 14 15 19 22 21 21 17 25 18 12 15 22 26 30 42 48 43 41 45
30 29 27 26 25 24 23 22 21 19 18 15 14 16 17 18 19 19 19 21 19 17 19 18 18 21 29 34 34 37 28 31 30 22 25 44 46 47 37 36 38 41 42 45
30 30 29 27 27 27 26 24 23 23 23 22 22 20 20 21 21 24 24 21 20 23 23 27 31 34 35 37 29 30 27 32 37 33 44 38 38 39 31 32 37 40 44 43
30 29 29 29 29 28 27 26 26 25 25 27 22 20 20 24 27 26 23 22 25 27 27 32 37 37 33 33 41 41 36 40 37 43 37 41 37 39 41 42 36 35 43 45
30 30 30 30 30 30 30 29 28 27 26 23 19 17 20 30 33 28 29 28 35 37 40 37 34 35 40 46 38 33 36 39 37 39 41 36 39 44 37 32 45 44 43 34
31 30 30 32 32 32 30 31 30 29 31 30 36 32 31 30 34 36 36 42 33 31 33 35 37 31 30 31 38 40 37 36 34 41 29 32 38 34 39 39 35 31 38 32
32 31 32 32 34 31 32 32 29 26 26 29 32 32 34 25 18 19 13 17 20 21 26 31 29 27 31 39 39 36 39 36 28 30 32 32 37 38 33 36 40 33 30 31
39 35 32 32 30 33 33 32 29 27 28 31 29 28 24 24 19 18 22 23 25 27 26 28 36 38 30 35 35 29 28 27 30 31 27 26 26 29 31 31 32 38 36 38
34 37 29 27 28 31 34 27 29 27 28 21 26 28 25 20 19 14 19 24 26 28 33 37 32 27 24 32 28 25 25 26 24 27 25 25 27 26 30 31 34 38 39 42
20 22 26 31 35 25 24 30 30 36 29 33 38 36 30 27 28 25 22 24 23 33 30 20 25 34 31 19 18 23 24 24 24 23 26 27 29 37 43 42 38 43 47 46
24 27 28 25 25 25 26 12 13 13 18 26 34 37 36 30 30 24 20 13 13 10 17 17 15 20 20 21 24 23 23 23 23 27 33 36 37 39 39 42 46 44 45 44
24 22 24 25 24 21 15 14 14 15 13 21 21 22 23 26 26 24 12 15 9 9 10 7 5 13 17 20 19 18 17 20 22 25 29 31 35 46 49 51 47 43 43 45
17 20 19 16 13 12 13 16 14 15 21 24 19 16 13 15 15 10 10 7 9 9 7 6 13 20 21 20 18 17 19 22 26 32 38 43 47 50 47 44 43 46 46 44
15 12 11 11 9 11 24 23 19 23 18 16 14 12 8 12 11 10 6 9 6 5 7 18 21 23 22 22 23 25 28 33 40 44 46 47 50 44 42 44 45 46 44 42
13 9 8 16 17 14 10 15 20 19 16 14 11 11 12 12 10 7 8 5 6 7 9 13 17 20 23 27 31 36 41 45 49 49 50 44 42 41 42 43 44 42 41 41
14 12 13 14 12 13 14 12 12 12 13 11 11 11 8 11 8 9 9 7 12 14 13 14 18 23 30 35 41 43 44 48 45 41 38 38 38 40 42 42 38 39 38 36
16 19 22 18 13 9 9 10 12 12 13 13 9 7 9 8 9 10 16 23 19 18 21 23 27 33 37 41 45 43 41 39 37 36 37 37 39 37 39 39 35 36 35 32
Wind_Direction
178 165 152 146 155 154 159 156 171 169 169 166 176 175 165 160 170 186 192 194 208 194 193 202 193 172 326 322 357 3 355 339 341 340 229 269 316 296 339 18 281 265 267 275
189 184 173 163 155 149 149 160 165 167 169 175 177 154 147 153 159 168 184 193 193 197 190 205 210 248 280 303 337 344 340 324 337 244 234 262 284 308 318 320 308 249 261 262
197 193 191 184 183 174 164 165 161 164 169 178 174 162 157 158 144 146 171 173 186 203 219 225 248 244 274 294 309 320 319 298 292 266 282 288 293 297 304 305 284 275 263 282
203 201 199 195 201 198 179 185 174 166 153 154 160 168 162 164 169 187 200 208 220 233 277 287 275 280 281 290 299 302 297 290 297 296 290 289 294 296 302 296 294 276 298 303
206 206 205 204 202 205 200 199 183 182 172 176 170 183 189 201 203 216 262 266 280 299 303 303 295 292 294 300 300 291 290 289 298 299 304 312 298 299 302 294 290 288 300 301
210 208 207 209 208 208 199 195 196 195 191 192 196 213 216 208 238 261 261 268 288 294 294 298 297 291 295 294 291 293 291 288 289 272 303 312 301 308 312 306 299 296 297 302
218 215 212 213 213 212 210 208 208 211 207 203 211 215 221 232 245 259 271 282 287 293 300 303 303 306 310 293 281 289 283 286 278 272 292 213 296 299 310 295 291 289 284 294
221 219 219 219 219 217 217 220 220 220 219 216 212 219 227 236 249 263 271 279 287 295 300 306 312 317 314 302 288 277 276 269 269 259 249 274 288 313 310 300 288 291 281 272
222 223 222 219 219 220 222 224 227 228 228 227 223 221 230 237 247 257 265 273 282 290 296 306 300 298 300 275 286 294 284 274 270 268 272 266 297 302 301 292 290 288 249 298
223 223 225 226 227 225 224 228 232 234 238 237 231 232 237 241 243 251 258 265 275 283 293 293 283 279 282 267 271 283 286 287 272 268 267 278 305 306 299 283 298 304 306 304
224 224 224 227 229 228 226 226 230 236 239 241 236 237 242 246 250 254 261 263 270 276 283 279 282 271 271 269 275 283 283 282 270 270 260 278 307 297 299 303 299 307 300 305
223 224 224 225 228 231 233 233 237 239 241 243 240 241 245 249 251 251 255 263 274 272 282 279 281 276 276 284 277 287 263 282 272 260 269 294 297 289 300 301 300 303 307 307
224 225 224 225 228 230 234 235 237 241 243 247 244 248 253 256 249 252 258 266 272 280 284 281 275 272 280 282 281 283 278 298 264 277 297 306 303 300 289 300 301 302 299 311
223 226 226 225 227 231 233 237 242 244 249 250 242 249 253 260 257 260 263 275 274 278 279 292 280 272 282 278 294 289 303 296 275 298 303 314 312 309 304 300 293 307 307 309
224 226 229 231 233 236 239 241 245 251 246 250 244 248 266 248 251 258 272 267 291 274 278 277 279 273 281 288 285 280 293 291 289 297 314 311 307 298 303 309 311 312 301 310
223 227 231 234 237 239 243 247 244 247 252 259 266 272 275 265 262 269 276 283 270 272 270 274 279 283 282 279 285 294 297 301 301 304 304 296 292 310 312 315 316 307 314 330
227 227 233 237 240 241 242 248 255 247 257 259 273 281 283 287 271 256 257 274 259 259 267 269 274 278 281 281 280 295 297 303 297 293 295 294 298 306 310 308 310 305 324 319
232 223 224 228 233 240 240 241 252 259 260 262 264 264 259 267 268 258 279 274 265 263 263 282 290 283 279 269 298 299 302 297 291 294 301 309 315 317 311 304 306 313 317 322
214 215 218 224 228 234 239 245 232 252 238 241 248 257 270 265 267 253 275 265 259 257 278 286 280 273 254 284 295 298 283 287 297 301 309 315 314 303 303 301 301 304 312 319
201 206 215 223 224 221 220 233 254 247 258 251 256 260 256 268 287 294 255 262 246 273 270 267 267 272 282 295 275 279 287 298 303 310 315 305 293 298 303 298 304 312 319 322
206 205 210 217 226 232 234 227 238 239 242 252 252 255 260 277 271 261 262 273 262 250 262 254 254 271 277 274 266 272 282 288 293 298 300 303 294 288 291 303 316 319 319 318
223 225 223 222 221 222 225 231 226 233 237 246 261 259 251 254 257 258 252 244 245 240 245 227 236 241 258 260 266 271 275 280 280 276 283 293 301 311 313 310 313 314 315 317
210 210 212 214 212 209 221 217 214 218 236 250 246 244 239 242 252 236 232 234 233 243 230 231 255 262 260 266 273 274 280 284 293 303 310 308 308 309 309 309 311 312 313 315
202 198 199 200 207 215 223 231 234 236 243 254 251 243 233 233 228 234 239 240 242 234 237 264 268 264 264 269 275 281 288 300 309 311 308 305 306 305 306 307 308 311 314 314
198 195 209 218 226 228 234 238 242 242 243 242 231 239 246 238 221 227 227 235 236 237 259 269 260 259 266 275 280 288 298 305 305 303 304 306 305 305 306 309 312 314 314 316
207 207 221 234 240 244 244 238 232 231 234 239 236 231 232 236 230 223 219 235 260 280 289 288 278 275 282 288 292 295 297 300 303 305 307 310 310 310 311 312 313 312 310 314
224 231 234 238 237 237 239 239 239 244 244 241 233 235 226 232 231 229 243 256 278 287 291 287 283 284 285 288 293 300 303 305 308 308 309 309 311 311 312 310 310 308 309 307
Height
3131 3134 3135 3136 3138 3139 3141 3142 3145 3147 3149 3152 3152 3154 3155 3157 3159 3160 3161 3162 3163 3163 3164 3165 3165 3165 3165 3165 3164 3163 3162 3160 3158 3157 3155 3154 3153 3152 3153 3154 3153 3150 3147 3135
3131 3133 3135 3137 3138 3140 3142 3143 3145 3147 3149 3151 3153 3154 3155 3157 3159 3160 3161 3161 3162 3163 3164 3165 3164 3164 3164 3163 3163 3162 3161 3159 3158 3157 3158 3156 3152 3150 3150 3150 3147 3144 3143 3131
3130 3133 3135 3137 3139 3141 3143 3145 3146 3148 3149 3151 3153 3154 3155 3157 3158 3159 3160 3161 3162 3162 3163 3163 3163 3163 3163 3162 3161 3160 3160 3158 3158 3158 3157 3155 3148 3146 3146 3145 3141 3137 3131 3125
3128 3131 3133 3136 3138 3140 3143 3144 3145 3147 3149 3151 3153 3154 3155 3156 3158 3159 3159 3160 3161 3162 3162 3162 3162 3161 3161 3161 3159 3158 3157 3154 3153 3151 3151 3149 3143 3140 3138 3136 3132 3130 3123 3120
3126 3129 3131 3134 3137 3139 3142 3144 3145 3146 3149 3151 3152 3153 3155 3156 3157 3159 3159 3160 3160 3160 3160 3160 3159 3159 3159 3157 3157 3156 3154 3151 3149 3145 3145 3143 3137 3133 3132 3130 3128 3123 3120 3116
3123 3126 3129 3132 3135 3138 3140 3142 3144 3146 3148 3149 3152 3152 3153 3155 3156 3157 3158 3158 3158 3158 3158 3156 3156 3155 3154 3154 3152 3151 3149 3147 3146 3143 3142 3140 3131 3127 3127 3124 3123 3119 3114 3113
3121 3124 3127 3129 3132 3135 3138 3140 3143 3144 3146 3147 3149 3150 3151 3153 3154 3155 3155 3156 3156 3156 3154 3153 3151 3150 3149 3148 3147 3146 3145 3144 3143 3139 3138 3138 3128 3124 3121 3117 3116 3114 3109 3107
3117 3121 3124 3127 3129 3132 3135 3138 3140 3142 3143 3145 3147 3147 3149 3150 3151 3153 3153 3153 3153 3152 3152 3150 3147 3146 3146 3144 3143 3143 3142 3141 3138 3135 3131 3126 3122 3119 3116 3111 3108 3106 3103 3099
3112 3117 3121 3123 3126 3129 3132 3134 3137 3139 3141 3143 3144 3145 3146 3147 3148 3149 3150 3150 3150 3149 3148 3147 3146 3145 3144 3143 3141 3140 3139 3138 3137 3131 3127 3119 3114 3113 3110 3105 3096 3097 3095 3091
3108 3113 3116 3120 3122 3125 3128 3130 3133 3135 3137 3139 3141 3141 3142 3143 3145 3145 3146 3146 3146 3145 3144 3143 3142 3141 3141 3139 3137 3136 3135 3132 3129 3123 3119 3112 3107 3106 3104 3102 3100 3092 3089 3083
3103 3108 3112 3115 3118 3120 3123 3126 3128 3131 3132 3134 3136 3137 3137 3138 3139 3140 3141 3142 3140 3140 3140 3138 3137 3134 3133 3131 3131 3130 3131 3129 3121 3116 3115 3108 3104 3101 3101 3096 3087 3083 3079 3074
3098 3102 3106 3110 3113 3116 3119 3122 3124 3126 3128 3130 3130 3131 3132 3133 3133 3134 3134 3135 3135 3135 3134 3133 3131 3129 3125 3124 3121 3122 3120 3119 3113 3113 3104 3102 3098 3094 3091 3084 3078 3074 3071 3065
3092 3096 3101 3105 3108 3111 3114 3116 3119 3120 3122 3124 3125 3126 3126 3126 3127 3127 3128 3129 3129 3129 3128 3126 3123 3120 3117 3115 3110 3110 3109 3111 3102 3099 3098 3093 3091 3087 3083 3076 3071 3066 3060 3055
3085 3091 3095 3099 3102 3105 3107 3110 3113 3115 3117 3116 3120 3119 3120 3120 3120 3121 3121 3123 3122 3121 3119 3117 3114 3111 3107 3103 3105 3103 3104 3096 3093 3088 3086 3082 3081 3075 3069 3065 3059 3055 3052 3048
3079 3084 3089 3092 3096 3099 3102 3104 3106 3108 3113 3108 3110 3112 3113 3113 3112 3113 3113 3113 3113 3111 3108 3106 3105 3104 3103 3096 3094 3092 3093 3090 3086 3078 3080 3075 3070 3064 3057 3056 3052 3047 3043 3040
3073 3078 3082 3086 3089 3093 3096 3097 3101 3102 3104 3102 3100 3099 3103 3105 3105 3105 3104 3103 3102 3101 3098 3096 3094 3096 3096 3088 3082 3083 3084 3081 3079 3072 3070 3066 3062 3055 3051 3048 3045 3041 3036 3031
3066 3071 3075 3079 3083 3086 3088 3091 3093 3097 3099 3097 3093 3085 3085 3091 3093 3094 3095 3095 3093 3092 3090 3087 3088 3089 3088 3080 3074 3075 3075 3073 3068 3065 3061 3058 3054 3050 3046 3042 3037 3034 3030 3027
3058 3063 3068 3073 3075 3077 3080 3083 3086 3089 3091 3090 3084 3078 3081 3085 3086 3089 3090 3088 3087 3084 3081 3080 3079 3077 3076 3071 3070 3069 3068 3063 3059 3056 3053 3050 3047 3043 3038 3033 3029 3025 3020 3016
3050 3056 3061 3064 3066 3068 3072 3078 3078 3079 3083 3077 3072 3072 3076 3075 3080 3082 3083 3081 3078 3076 3073 3073 3070 3067 3064 3065 3063 3062 3058 3054 3050 3047 3044 3041 3039 3034 3029 3025 3021 3016 3012 3007
3045 3050 3054 3056 3059 3061 3065 3069 3068 3071 3069 3067 3064 3067 3070 3074 3074 3073 3077 3073 3070 3068 3064 3064 3061 3057 3060 3060 3056 3053 3050 3047 3043 3040 3038 3035 3031 3028 3023 3019 3013 3009 3004 2999
3043 3045 3048 3051 3055 3059 3061 3059 3061 3062 3059 3058 3059 3062 3065 3065 3067 3068 3067 3063 3062 3059 3059 3058 3052 3052 3054 3053 3050 3047 3044 3042 3039 3036 3032 3029 3024 3019 3015 3012 3006 3001 2996 2990
3040 3043 3045 3047 3050 3053 3056 3054 3055 3053 3053 3052 3054 3057 3057 3057 3059 3061 3059 3058 3056 3053 3051 3051 3047 3048 3047 3044 3042 3040 3037 3035 3033 3030 3025 3022 3018 3013 3007 3002 2997 2991 2986 2981
3035 3037 3039 3041 3045 3046 3045 3045 3044 3047 3046 3045 3049 3051 3051 3051 3054 3055 3053 3051 3050 3047 3046 3044 3045 3041 3040 3039 3038 3036 3033 3030 3027 3024 3020 3015 3010 3004 2999 2993 2988 2981 2977 2971
3031 3033 3035 3036 3036 3035 3034 3038 3041 3043 3044 3043 3046 3047 3048 3046 3049 3048 3046 3045 3044 3042 3041 3039 3037 3035 3035 3034 3032 3030 3027 3023 3019 3015 3010 3006 3000 2994 2990 2984 2978 2972 2967 2961
3029 3029 3030 3028 3028 3030 3032 3035 3037 3040 3040 3041 3042 3042 3044 3044 3045 3043 3040 3040 3038 3036 3034 3033 3032 3032 3030 3027 3024 3020 3018 3014 3010 3005 3001 2995 2989 2984 2979 2974 2968 2962 2956 2951
3023 3024 3023 3023 3026 3028 3031 3033 3035 3036 3036 3036 3037 3039 3039 3039 3038 3036 3035 3035 3032 3032 3030 3027 3027 3026 3023 3019 3017 3012 3009 3005 3001 2995 2990 2985 2980 2974 2968 2963 2959 2954 2948 2944
3016 3017 3020 3022 3025 3026 3028 3029 3031 3032 3032 3032 3034 3033 3033 3032 3030 3030 3030 3028 3029 3027 3025 3021 3019 3016 3013 3011 3008 3003 2999 2995 2991 2985 2981 2975 2970 2965 2959 2954 2950 2945 2941 2937